EW8974 Weather Reports


Display with metric or nautical units.
time (UTC)temp
F
wind
direction
speed
MPH
gust
MPH
rain 1hr
in
rain 24hr
in
rain mn
in
humidity
%
barometer
mb
20260903042031 79 221 0.0 1.0 0.00 0.00 0.00 74 1006.7
20260903041532 79 221 0.0 1.0 0.00 0.00 0.00 74 1006.7
20260903041033 79 221 0.0 2.0 0.00 0.00 0.00 73 1006.7
20260903040531 79 221 0.0 3.0 0.00 0.00 0.00 73 1006.8
20260903040039 80 56 0.0 3.0 0.00 0.00 0.00 72 1006.8
20260903035533 80 222 0.0 2.0 0.00 0.00 0.00 72 1006.7
20260903035031 80 221 0.0 2.0 0.00 0.00 0.00 71 1006.6
20260903034531 80 137 0.0 4.0 0.00 0.00 0.00 71 1006.5
20260903034031 80 349 0.0 4.0 0.00 0.00 0.00 71 1006.6
20260903033530 81 291 0.0 1.0 0.00 0.00 0.00 71 1006.8
20260903033031 81 329 0.0 1.0 0.00 0.00 0.00 71 1006.8
20260903032530 81 329 0.0 1.0 0.00 0.00 0.00 70 1006.6
20260903032030 81 249 0.0 2.0 0.00 0.00 0.00 70 1006.6
20260903031532 81 213 0.0 2.0 0.00 0.00 0.00 70 1006.6
20260903031032 82 250 0.0 2.0 0.00 0.00 0.00 70 1006.8
20260903030532 82 278 0.0 1.0 0.00 0.00 0.00 69 1006.7
20260903030038 82 53 0.0 2.0 0.00 0.00 0.00 69 1006.5
20260903025530 82 290 0.0 2.0 0.00 0.00 0.00 69 1006.5
20260903025029 83 331 0.0 3.0 0.00 0.00 0.00 68 1006.4
20260903024529 83 283 0.0 3.0 0.00 0.00 0.00 68 1006.3
20260903024029 83 266 0.0 3.0 0.00 0.00 0.00 67 1006.2
20260903023529 83 200 0.0 3.0 0.00 0.00 0.00 67 1006.2
20260903023034 83 267 0.0 2.0 0.00 0.00 0.00 67 1006.2
20260903022528 84 323 0.0 2.0 0.00 0.00 0.00 66 1006.0
20260903022027 84 226 0.0 3.0 0.00 0.00 0.00 66 1006.0
20260903021527 84 337 0.0 3.0 0.00 0.00 0.00 65 1005.9
20260903021027 84 6 0.0 1.0 0.00 0.00 0.00 65 1005.9
20260903020528 84 41 0.0 2.0 0.00 0.00 0.00 64 1005.9
20260903020028 85 337 0.0 2.0 0.00 0.00 0.00 63 1005.9
20260903015530 85 269 0.0 1.0 0.00 0.00 0.00 62 1005.7
20260903015026 85 264 0.0 1.0 0.00 0.00 0.00 61 1005.7
20260903014527 85 264 0.0 1.0 0.00 0.00 0.00 61 1005.7
20260903014028 86 295 0.0 2.0 0.00 0.00 0.00 60 1005.7
20260903013527 86 300 0.0 1.0 0.00 0.00 0.00 60 1005.5
20260903013027 86 305 0.0 1.0 0.00 0.00 0.00 60 1005.5
20260903012526 87 296 0.0 1.0 0.00 0.00 0.00 60 1005.5
20260903012026 87 223 0.0 1.0 0.00 0.00 0.00 59 1005.4
20260903011525 87 319 0.0 2.0 0.00 0.00 0.00 59 1005.5
20260903011025 88 300 0.0 2.0 0.00 0.00 0.00 58 1005.5
20260903010525 88 349 0.0 2.0 0.00 0.00 0.00 58 1005.4
20260903010025 89 345 0.0 2.0 0.00 0.00 0.00 57 1005.2
20260903005524 90 344 0.0 2.0 0.00 0.00 0.00 56 1005.2
20260903005028 90 101 0.0 2.0 0.00 0.00 0.00 55 1005.1
20260903004525 91 124 0.0 2.0 0.00 0.00 0.00 54 1005.2
20260903004025 92 67 0.0 2.0 0.00 0.00 0.00 52 1005.2
20260903003525 93 11 0.0 1.0 0.00 0.00 0.00 51 1005.1
20260903003026 94 319 0.0 2.0 0.00 0.00 0.00 50 1005.1
20260903002523 94 182 0.0 2.0 0.00 0.00 0.00 49 1005.1
20260903002027 94 296 0.0 2.0 0.00 0.00 0.00 49 1005.2
20260903001537 94 237 0.0 2.0 0.00 0.00 0.00 49 1005.2
20260903001023 94 177 0.0 3.0 0.00 0.00 0.00 48 1005.1
20260903000523 95 338 0.0 5.0 0.00 0.00 0.00 46 1005.1
20260903000024 96 202 0.0 5.0 0.00 0.00 0.00 45 1005.1
20260902235527 96 238 0.0 3.0 0.00 0.00 0.00 44 1004.9
20260902235022 97 212 0.0 5.0 0.00 0.00 0.00 43 1004.9
20260902234523 97 258 1.0 6.0 0.00 0.00 0.00 42 1005.0
20260902234022 97 353 1.0 6.0 0.00 0.00 0.00 42 1004.8
20260902233522 97 23 1.0 4.0 0.00 0.00 0.00 42 1004.7
20260902233022 97 252 0.0 3.0 0.00 0.00 0.00 43 1004.7
20260902232520 97 224 0.0 3.0 0.00 0.00 0.00 43 1004.7
20260902232021 98 40 0.0 2.0 0.00 0.00 0.00 42 1004.8
20260902231525 99 259 0.0 5.0 0.00 0.00 0.00 43 1004.7
20260902231021 100 24 1.0 5.0 0.00 0.00 0.00 42 1004.7
20260902230520 100 288 0.0 4.0 0.00 0.00 0.00 41 1004.6
20260902230020 101 256 1.0 6.0 0.00 0.00 0.00 39 1004.7
20260902225520 101 26 1.0 6.0 0.00 0.00 0.00 38 1004.6
20260902225020 101 206 1.0 4.0 0.00 0.00 0.00 38 1004.5
20260902224520 102 167 0.0 6.0 0.00 0.00 0.00 37 1004.6
20260902224019 102 49 1.0 3.0 0.00 0.00 0.00 37 1004.5
20260902223522 102 207 0.0 7.0 0.00 0.00 0.00 36 1004.6
20260902223020 102 343 1.0 7.0 0.00 0.00 0.00 37 1004.5
20260902222521 102 35 2.0 6.0 0.00 0.00 0.00 35 1004.5
20260902222024 102 81 2.0 6.0 0.00 0.00 0.00 36 1004.5
20260902221519 102 354 1.0 8.0 0.00 0.00 0.00 35 1004.5
20260902221017 102 37 1.0 8.0 0.00 0.00 0.00 35 1004.6
20260902220521 102 44 0.0 7.0 0.00 0.00 0.00 38 1004.6
20260902220019 102 112 0.0 4.0 0.00 0.00 0.00 37 1004.6
20260902215516 102 335 0.0 10.0 0.00 0.00 0.00 37 1004.6
20260902215015 102 74 2.0 10.0 0.00 0.00 0.00 38 1004.6
20260902214516 102 348 0.0 6.0 0.00 0.00 0.00 38 1004.8
20260902214015 101 23 0.0 8.0 0.00 0.00 0.00 37 1004.8
20260902213515 101 101 3.0 8.0 0.00 0.00 0.00 36 1004.8
20260902213014 101 58 3.0 7.0 0.00 0.00 0.00 36 1004.9
20260902212513 101 2 0.0 5.0 0.00 0.00 0.00 38 1004.9
20260902212013 101 83 1.0 8.0 0.00 0.00 0.00 36 1005.0
20260902211514 102 83 2.0 8.0 0.00 0.00 0.00 36 1005.0
20260902211011 101 51 0.0 4.0 0.00 0.00 0.00 37 1005.1
20260902210511 101 77 1.0 9.0 0.00 0.00 0.00 37 1005.0
20260902210009 100 9 2.0 9.0 0.00 0.00 0.00 38 1005.2
20260902205650 100 13 2.0 7.0 0.00 0.00 0.00 39 1005.3
20260902204056 99 7 2.0 8.0 0.00 0.00 0.00 39 1005.5
20260902203554 100 63 2.0 8.0 0.00 0.00 0.00 39 1005.5
20260902203059 100 19 1.0 9.0 0.00 0.00 0.00 39 1005.6
20260902202553 100 42 1.0 9.0 0.00 0.00 0.00 38 1005.7
20260902202052 100 71 3.0 7.0 0.00 0.00 0.00 38 1005.7
20260902201552 100 227 0.0 6.0 0.00 0.00 0.00 40 1005.7
20260902201055 100 72 1.0 6.0 0.00 0.00 0.00 39 1005.8
20260902200551 99 327 0.0 9.0 0.00 0.00 0.00 40 1006.0
20260902200105 99 91 2.0 9.0 0.00 0.00 0.00 40 1006.0
20260902195551 99 81 3.0 9.0 0.00 0.00 0.00 39 1006.0
20260902195049 99 93 2.0 7.0 0.00 0.00 0.00 38 1006.0
20260902194558 99 158 2.0 7.0 0.00 0.00 0.00 40 1006.2
20260902194052 99 89 2.0 6.0 0.00 0.00 0.00 40 1006.3
20260902193548 99 288 1.0 7.0 0.00 0.00 0.00 40 1006.3
20260902193047 99 89 0.0 7.0 0.00 0.00 0.00 40 1006.3
20260902192546 99 89 2.0 7.0 0.00 0.00 0.00 41 1006.5
20260902192045 100 167 1.0 7.0 0.00 0.00 0.00 42 1006.6
20260902191555 100 122 0.0 2.0 0.00 0.00 0.00 45 1006.8
20260902191042 99 42 0.0 5.0 0.00 0.00 0.00 44 1006.8
20260902190543 98 82 1.0 5.0 0.00 0.00 0.00 42 1006.9
20260902190052 98 271 0.0 3.0 0.00 0.00 0.00 43 1007.0
20260902185538 98 163 0.0 6.0 0.00 0.00 0.00 42 1007.1
20260902185039 98 85 2.0 9.0 0.00 0.00 0.00 41 1007.2
20260902184538 97 23 2.0 9.0 0.00 0.00 0.00 43 1007.2
20260902184037 97 184 0.0 7.0 0.00 0.00 0.00 45 1007.3
20260902183537 97 82 1.0 6.0 0.00 0.00 0.00 45 1007.5
20260902183040 97 47 2.0 6.0 0.00 0.00 0.00 44 1007.5
20260902182535 98 38 1.0 6.0 0.00 0.00 0.00 44 1007.6
20260902182035 97 154 0.0 4.0 0.00 0.00 0.00 45 1007.5
20260902181532 97 67 0.0 4.0 0.00 0.00 0.00 45 1007.7
20260902181032 97 47 0.0 6.0 0.00 0.00 0.00 44 1007.7
20260902180530 97 8 0.0 6.0 0.00 0.00 0.00 44 1008.0
20260902180038 97 75 1.0 5.0 0.00 0.00 0.00 47 1008.1
20260902175528 96 169 0.0 6.0 0.00 0.00 0.00 47 1008.2
20260902175030 96 75 2.0 6.0 0.00 0.00 0.00 47 1008.4
20260902174526 95 333 1.0 4.0 0.00 0.00 0.00 49 1008.4
20260902174026 95 29 0.0 7.0 0.00 0.00 0.00 49 1008.5
20260902173526 95 109 1.0 7.0 0.00 0.00 0.00 49 1008.6
20260902173035 96 55 0.0 5.0 0.00 0.00 0.00 49 1008.7
20260902172527 95 133 0.0 4.0 0.00 0.00 0.00 48 1008.7
20260902172023 95 55 1.0 4.0 0.00 0.00 0.00 48 1008.7
20260902171521 95 53 0.0 5.0 0.00 0.00 0.00 51 1008.7
20260902171120 95 15 0.0 5.0 0.00 0.00 0.00 50 1008.8
20260902170519 94 101 0.0 3.0 0.00 0.00 0.00 51 1009.0
20260902170018 94 44 0.0 7.0 0.00 0.00 0.00 55 1009.0
20260902165517 93 233 0.0 5.0 0.00 0.00 0.00 54 1009.0
20260902165017 93 349 0.0 4.0 0.00 0.00 0.00 53 1009.2
20260902164516 93 70 2.0 4.0 0.00 0.00 0.00 52 1009.2
20260902164017 93 245 0.0 5.0 0.00 0.00 0.00 55 1009.4
20260902163515 92 39 0.0 5.0 0.00 0.00 0.00 55 1009.5
20260902163012 92 32 0.0 3.0 0.00 0.00 0.00 56 1009.4
20260902162510 91 25 1.0 5.0 0.00 0.00 0.00 57 1009.4
20260902162012 90 63 1.0 4.0 0.00 0.00 0.00 57 1009.5
20260902161517 90 24 0.0 5.0 0.00 0.00 0.00 58 1009.5
20260902161010 89 262 1.0 5.0 0.00 0.00 0.00 58 1009.5
20260902160508 89 76 1.0 4.0 0.00 0.00 0.00 61 1009.5
20260902160009 89 46 0.0 4.0 0.00 0.00 0.00 59 1009.6
20260902155506 89 37 1.0 4.0 0.00 0.00 0.00 60 1009.5
20260902155004 89 330 0.0 2.0 0.00 0.00 0.00 62 1009.6
20260902154502 88 6 0.0 3.0 0.00 0.00 0.00 63 1009.6
20260902154003 88 86 0.0 3.0 0.00 0.00 0.00 64 1009.6
20260902153601 87 34 0.0 2.0 0.00 0.00 0.00 65 1009.5
20260902153101 86 349 0.0 1.0 0.00 0.00 0.00 65 1009.5
20260902152557 85 27 0.0 4.0 0.00 0.00 0.00 68 1009.6
20260902152100 85 54 0.0 4.0 0.00 0.00 0.00 67 1009.4
20260902151555 84 195 0.0 2.0 0.00 0.00 0.00 72 1009.6
20260902151052 83 229 0.0 1.0 0.00 0.00 0.00 73 1009.5
20260902150552 83 229 0.0 2.0 0.00 0.00 0.00 74 1009.4
20260902150051 82 283 1.0 2.0 0.00 0.00 0.00 73 1009.5
20260902145550 82 229 0.0 3.0 0.00 0.00 0.00 73 1009.6
20260902145049 82 65 0.0 3.0 0.00 0.00 0.00 74 1009.6
20260902144551 81 181 0.0 1.0 0.00 0.00 0.00 76 1009.6
20260902144049 81 283 0.0 1.0 0.00 0.00 0.00 77 1009.7
20260902143548 81 283 0.0 1.0 0.00 0.00 0.00 77 1009.7
20260902143048 80 31 0.0 0.0 0.00 0.00 0.00 77 1009.5
20260902142547 80 31 0.0 1.0 0.00 0.00 0.00 78 1009.6
20260902142047 80 277 0.0 1.0 0.00 0.00 0.00 79 1009.4
20260902141551 80 275 0.0 2.0 0.00 0.00 0.00 79 1009.4
20260902141046 79 33 0.0 2.0 0.00 0.00 0.00 80 1009.4
20260902140546 79 46 0.0 2.0 0.00 0.00 0.00 80 1009.5
20260902140049 78 295 0.0 1.0 0.00 0.00 0.00 80 1009.5
20260902135545 78 295 0.0 1.0 0.00 0.00 0.00 81 1009.4
20260902135045 77 295 0.0 3.0 0.00 0.00 0.00 82 1009.4
20260902134551 77 63 0.0 3.0 0.00 0.00 0.00 83 1009.5
20260902134044 76 248 0.0 1.0 0.00 0.00 0.00 84 1009.5
20260902133544 76 248 0.0 1.0 0.00 0.00 0.00 84 1009.4
20260902133045 75 248 0.0 1.0 0.00 0.00 0.00 85 1009.4
20260902132546 75 248 0.0 1.0 0.00 0.00 0.00 86 1009.4
20260902132043 74 248 0.0 1.0 0.00 0.00 0.00 87 1009.4
20260902131543 74 248 0.0 1.0 0.00 0.00 0.00 87 1009.5
20260902131046 73 248 0.0 0.0 0.00 0.00 0.00 89 1009.5
20260902130543 73 248 0.0 0.0 0.00 0.00 0.00 89 1009.5
20260902130042 72 248 0.0 0.0 0.00 0.00 0.00 89 1009.3
20260902125542 72 248 0.0 0.0 0.00 0.00 0.00 89 1009.2
20260902125042 72 248 0.0 0.0 0.00 0.00 0.00 89 1009.2
20260902124542 72 248 0.0 0.0 0.00 0.00 0.00 89 1009.2
20260902124041 72 248 0.0 0.0 0.00 0.00 0.00 89 1009.2
20260902123540 72 248 0.0 0.0 0.00 0.00 0.00 89 1009.0
20260902123040 71 248 0.0 0.0 0.00 0.00 0.00 89 1008.9
20260902122542 71 248 0.0 0.0 0.00 0.00 0.00 88 1008.9
20260902122039 71 248 0.0 0.0 0.00 0.00 0.00 89 1008.8
20260902121540 71 248 0.0 0.0 0.00 0.00 0.00 88 1008.8
20260902121038 71 248 0.0 0.0 0.00 0.00 0.00 89 1008.8
20260902120540 71 248 0.0 0.0 0.00 0.00 0.00 88 1008.8
20260902120039 71 248 0.0 0.0 0.00 0.00 0.00 88 1008.7
20260902115537 71 248 0.0 0.0 0.00 0.00 0.00 88 1008.7
20260902115038 71 248 0.0 0.0 0.00 0.00 0.00 88 1008.8
20260902114538 71 248 0.0 0.0 0.00 0.00 0.00 88 1008.7
20260902114038 72 248 0.0 0.0 0.00 0.00 0.00 88 1008.7
20260902113537 71 248 0.0 0.0 0.00 0.00 0.00 88 1008.8
20260902113037 71 248 0.0 0.0 0.00 0.00 0.00 88 1008.7
20260902112536 72 248 0.0 0.0 0.00 0.00 0.00 88 1008.9
20260902112036 72 248 0.0 0.0 0.00 0.00 0.00 88 1008.9
20260902111536 72 248 0.0 0.0 0.00 0.00 0.00 88 1008.8
20260902111036 71 248 0.0 0.0 0.00 0.00 0.00 88 1008.7
20260902110539 72 248 0.0 0.0 0.00 0.00 0.00 87 1008.7
20260902110037 72 248 0.0 0.0 0.00 0.00 0.00 87 1008.7
20260902105535 72 248 0.0 0.0 0.00 0.00 0.00 87 1008.7
20260902105034 72 248 0.0 0.0 0.00 0.00 0.00 87 1008.6
20260902104535 72 248 0.0 0.0 0.00 0.00 0.00 87 1008.6
20260902104035 72 248 0.0 0.0 0.00 0.00 0.00 86 1008.7
20260902103533 72 248 0.0 0.0 0.00 0.00 0.00 86 1008.6
20260902103032 72 248 0.0 0.0 0.00 0.00 0.00 86 1008.6
20260902102533 72 248 0.0 0.0 0.00 0.00 0.00 86 1008.6
20260902102031 72 248 0.0 0.0 0.00 0.00 0.00 86 1008.7
20260902101530 73 248 0.0 0.0 0.00 0.00 0.00 85 1008.8
20260902101033 73 248 0.0 0.0 0.00 0.00 0.00 85 1008.7
20260902100529 73 248 0.0 0.0 0.00 0.00 0.00 84 1008.7
20260902100028 73 248 0.0 0.0 0.00 0.00 0.00 84 1008.8
20260902095527 73 248 0.0 0.0 0.00 0.00 0.00 84 1008.8
20260902095027 74 248 0.0 0.0 0.00 0.00 0.00 83 1008.7
20260902094528 74 248 0.0 0.0 0.00 0.00 0.00 83 1008.7
20260902094026 74 248 0.0 0.0 0.00 0.00 0.00 83 1008.7
20260902093525 74 248 0.0 0.0 0.00 0.00 0.00 82 1008.6
20260902093025 74 248 0.0 0.0 0.00 0.00 0.00 82 1008.6
20260902092525 75 248 0.0 0.0 0.00 0.00 0.00 82 1008.5
20260902092023 75 248 0.0 0.0 0.00 0.00 0.00 81 1008.6
20260902091522 75 248 0.0 0.0 0.00 0.00 0.00 81 1008.6
20260902091021 75 248 0.0 0.0 0.00 0.00 0.00 80 1008.5
20260902090520 76 248 0.0 0.0 0.00 0.00 0.00 80 1008.5
20260902090019 76 248 0.0 0.0 0.00 0.00 0.00 79 1008.4
20260902085520 76 248 0.0 0.0 0.00 0.00 0.00 79 1008.3
20260902085016 76 248 0.0 0.0 0.00 0.00 0.00 78 1008.3
20260902084519 77 248 0.0 1.0 0.00 0.00 0.00 78 1008.4
20260902084017 77 248 0.0 1.0 0.00 0.00 0.00 79 1008.4
20260902083521 76 248 0.0 1.0 0.00 0.00 0.00 79 1008.4
20260902083016 77 248 0.0 1.0 0.00 0.00 0.00 79 1008.4
20260902082515 77 248 0.0 1.0 0.00 0.00 0.00 78 1008.5
20260902082016 77 248 0.0 1.0 0.00 0.00 0.00 78 1008.5
20260902081513 77 248 0.0 1.0 0.00 0.00 0.00 78 1008.4
20260902081013 77 248 0.0 1.0 0.00 0.00 0.00 77 1008.5
20260902080512 78 247 0.0 2.0 0.00 0.00 0.00 78 1008.6
20260902080012 78 248 0.0 2.0 0.00 0.00 0.00 77 1008.4
20260902075511 78 248 0.0 1.0 0.00 0.00 0.00 77 1008.6
20260902075011 78 248 0.0 1.0 0.00 0.00 0.00 77 1008.6
20260902074510 78 248 0.0 1.0 0.00 0.00 0.00 77 1008.6
20260902074011 78 248 0.0 1.0 0.00 0.00 0.00 76 1008.6
20260902073508 78 248 0.0 1.0 0.00 0.00 0.00 76 1008.7
20260902073008 79 248 0.0 1.0 0.00 0.00 0.00 76 1008.5
20260902072510 79 248 0.0 1.0 0.00 0.00 0.00 76 1008.6
20260902072007 79 247 0.0 1.0 0.00 0.00 0.00 76 1008.6
20260902071507 79 247 0.0 1.0 0.00 0.00 0.00 75 1008.6
20260902071004 80 243 0.0 1.0 0.00 0.00 0.00 74 1008.7
20260902070504 80 243 0.0 1.0 0.00 0.00 0.00 73 1008.8
20260902070007 80 243 0.0 1.0 0.00 0.00 0.00 73 1008.9
20260902065503 80 243 0.0 1.0 0.00 0.00 0.00 72 1008.9
20260902065001 80 243 0.0 1.0 0.00 0.00 0.00 72 1008.8
20260902064507 80 295 0.0 1.0 0.00 0.00 0.00 71 1008.8
20260902064104 80 233 0.0 1.0 0.00 0.00 0.00 72 1008.9
20260902063600 80 88 0.0 1.0 0.00 0.00 0.00 71 1008.6
20260902063115 80 162 0.0 0.0 0.00 0.00 0.00 72 1008.6
20260902062600 80 162 0.0 1.0 0.00 0.00 0.00 72 1008.6
20260902062059 81 259 0.0 1.0 0.00 0.00 0.00 72 1008.6
20260902061058 81 259 0.0 2.0 0.00 0.00 0.00 71 1008.5
20260902060557 81 259 0.0 2.0 0.00 0.00 0.00 71 1008.5
20260902060108 81 36 0.0 1.0 0.00 0.00 0.00 71 1008.6
20260902055557 81 36 0.0 1.0 0.00 0.00 0.00 71 1008.6
20260902055058 81 266 0.0 1.0 0.00 0.00 0.00 71 1008.6
20260902054608 81 266 0.0 1.0 0.00 0.00 0.00 71 1008.6
20260902054056 81 195 0.0 1.0 0.00 0.00 0.00 72 1008.4
20260902053556 81 195 0.0 1.0 0.00 0.00 0.00 71 1008.4
20260902053056 81 218 0.0 1.0 0.00 0.00 0.00 71 1008.4
20260902052554 81 219 0.0 1.0 0.00 0.00 0.00 70 1008.5
20260902052053 81 219 0.0 1.0 0.00 0.00 0.00 70 1008.5
20260902051558 81 219 0.0 2.0 0.00 0.00 0.00 70 1008.6
20260902051051 82 219 0.0 2.0 0.00 0.00 0.00 69 1008.6
20260902050551 82 217 0.0 1.0 0.00 0.00 0.00 68 1008.6
20260902050050 82 216 0.0 2.0 0.00 0.00 0.00 68 1008.6
20260902045549 82 323 0.0 2.0 0.00 0.00 0.00 67 1008.4
20260902045049 82 226 0.0 1.0 0.00 0.00 0.00 67 1008.4
20260902044549 83 243 0.0 3.0 0.00 0.00 0.00 67 1008.4
20260902044049 82 234 0.0 3.0 0.00 0.00 0.00 67 1008.5
20260902043548 83 183 0.0 1.0 0.00 0.00 0.00 67 1008.6
20260902043106 83 183 0.0 1.0 0.00 0.00 0.00 67 1008.6
20260902042551 83 237 0.0 1.0 0.00 0.00 0.00 66 1008.6